[[{"header":{"parameterUnit":"m.s-1","parameterCategory":2,"la1":30.2991,"la2":30.254,"lo1":-89.0895,"lo2":-89.0444,"dy":0.0017,"dx":0.0017,"nx":28,"ny":28,"refTime":"2023-03-30T21:00:00:Z","depth":"0","parameterNumber":2,"parameterNumberName":"U-component_of_CURRENTS"},"data":[0,0,0,0,0,0,0,0,0,0,0,0,0,0,0,0,0,0,0,0,0,0,0,0,0,0,0,0,0,0,0,0,0,0,0,0,0,0,0,0,0,0,0,0,0,0,0,0,0,0,0,0,0,0,0,0,0,0,-0.2809,-0.2809,0,-0.2862,-0.2864,-0.2865,-0.291,-0.2909,-0.2909,-0.2909,-0.2866,-0.2865,-0.2864,0,0,0,0,0,0,0,0,0,0,0,0,0,-0.2615,-0.2619,-0.2809,-0.2809,-0.2809,-0.2862,-0.2864,-0.2865,-0.291,-0.2909,-0.2909,-0.2909,-0.2867,-0.2865,-0.2864,0,0,0,0,0,0,0,0,0,0,0,0,0,-0.2694,-0.2621,-0.2809,-0.2832,-0.2835,-0.2862,-0.2864,-0.2865,-0.291,-0.2909,-0.2909,-0.2909,-0.2867,-0.2866,-0.2864,-0.286,0,0,-0.286,-0.2859,0,0,0,0,0,0,0,0,-0.2689,-0.2702,-0.2829,-0.2831,-0.2833,-0.2873,-0.2779,-0.2856,-0.291,-0.2889,-0.2909,-0.2909,-0.2855,-0.2854,-0.2877,-0.2858,-0.2856,-0.2859,-0.2859,-0.2858,-0.2858,0,0,0,0,0,0,0,-0.2684,-0.2699,-0.2838,-0.2829,-0.2831,-0.2794,-0.2808,-0.2794,-0.2876,-0.2891,-0.2892,-0.2887,-0.2856,-0.2878,-0.2876,-0.2856,-0.286,-0.2858,-0.2857,-0.2857,-0.2766,-0.2765,0,0,0,0,0,0,-0.2671,-0.2695,-0.2836,-0.2838,-0.2751,-0.2798,-0.2813,-0.2866,-0.2879,-0.2879,-0.2887,-0.2888,-0.2881,-0.2877,-0.2874,-0.2824,-0.2858,-0.2857,-0.2856,-0.2768,-0.2766,-0.2764,0,0,0,0,0,0,-0.2668,-0.2686,-0.2833,-0.2758,-0.2773,-0.2802,-0.2861,-0.2867,-0.2886,-0.2876,-0.2876,-0.2897,-0.2881,-0.2876,-0.2857,-0.2824,-0.2856,-0.2855,-0.2769,-0.2767,-0.2765,-0.2753,0,0,0,0,0,0,-0.2663,-0.2686,-0.2722,-0.2759,-0.2777,-0.2855,-0.2861,-0.2868,-0.2879,-0.2882,-0.2884,-0.2881,-0.288,-0.2859,-0.2855,-0.2823,-0.2853,-0.2771,-0.2768,-0.2766,-0.2755,-0.275,-0.2746,0,0,0,0,0,-0.2657,-0.2718,-0.2725,-0.274,-0.2828,-0.2855,-0.2862,-0.2882,-0.2879,-0.2897,-0.2886,-0.288,-0.2837,-0.2857,-0.2853,-0.2819,-0.2773,-0.2769,-0.2766,-0.2757,-0.2751,-0.2746,0,0,0,0,0,0,-0.2663,-0.2728,-0.2737,-0.2818,-0.2829,-0.2859,-0.2878,-0.2879,-0.289,-0.2884,-0.2876,-0.2872,-0.2838,-0.283,-0.2852,-0.2781,-0.2797,-0.2793,-0.2792,-0.2786,-0.2782,-0.2728,-0.2852,0,0,0,0,0,-0.2675,-0.2729,-0.2768,-0.282,-0.2835,-0.285,-0.2862,-0.2869,-0.2876,-0.2883,-0.2881,-0.2857,-0.2822,-0.2807,-0.279,-0.276,-0.2718,-0.2729,-0.2724,-0.2721,-0.2672,-0.2598,-0.2582,-0.2753,-0.2753,-0.2753,0,0,-0.2687,-0.2724,-0.2756,-0.282,-0.2837,-0.2837,-0.2861,-0.2878,-0.2853,-0.2871,-0.2853,-0.2849,-0.2811,-0.2779,-0.276,-0.2767,-0.2655,-0.2716,-0.2714,-0.2666,-0.2592,-0.2576,-0.2561,-0.2751,-0.2751,-0.2751,0,0,-0.2691,-0.2775,-0.2796,-0.2811,-0.2823,-0.2834,-0.2833,-0.2861,-0.286,-0.2849,-0.283,-0.2793,-0.2789,-0.273,-0.27,-0.2652,-0.2638,-0.2664,-0.2595,-0.2526,-0.251,-0.2497,-0.2448,-0.243,-0.2658,-0.2658,-0.2658,0,-0.2686,-0.2732,-0.2799,-0.28,-0.2796,-0.2825,-0.2809,-0.2813,-0.282,-0.2794,-0.284,-0.2763,-0.2745,-0.2634,-0.2621,-0.2636,-0.2614,-0.2627,-0.2519,-0.2504,-0.249,-0.2443,-0.2423,-0.2657,-0.2658,-0.2658,-0.2658,0,-0.2679,-0.2711,-0.2725,-0.2736,-0.2748,-0.2748,-0.2752,-0.275,-0.2759,-0.2746,-0.2683,-0.2672,-0.2614,-0.2608,-0.2603,-0.248,-0.2505,-0.2529,-0.2535,-0.2472,-0.2427,-0.2407,-0.2656,-0.2656,-0.2657,-0.2657,0,0,-0.2642,-0.2708,-0.27,-0.269,-0.2712,-0.2714,-0.2681,-0.2647,-0.2603,-0.2615,-0.255,-0.2487,-0.249,-0.245,-0.2437,-0.2373,-0.2274,-0.2411,-0.2408,-0.2364,-0.2139,-0.2115,-0.2091,-0.2301,-0.2297,-0.2293,-0.2158,0,-0.2587,-0.2585,-0.263,-0.2594,-0.2587,-0.2614,-0.2576,-0.2547,-0.2547,-0.2507,-0.2457,-0.2411,-0.2425,-0.2411,-0.2338,-0.2297,-0.2214,-0.2308,-0.2201,-0.2197,-0.2184,-0.2063,-0.206,-0.1935,-0.2138,-0.2135,-0.2132,0,-0.2512,-0.2528,-0.2508,-0.2512,-0.2512,-0.2497,-0.245,-0.2424,-0.237,-0.2376,-0.232,-0.2316,-0.22,-0.2254,-0.2096,-0.217,-0.2124,-0.2098,-0.2093,-0.2044,-0.2131,-0.2023,-0.189,-0.191,-0.21,-0.2103,-0.2105,0,-0.239,-0.2416,-0.24,-0.2405,-0.2428,-0.2407,-0.2403,-0.2367,-0.2334,-0.2288,-0.2285,-0.2176,-0.2142,-0.2052,-0.2005,-0.2051,-0.1859,-0.1922,-0.1838,-0.1839,-0.1791,-0.1793,-0.1652,-0.1766,-0.1766,-0.1766,-0.1767,0,-0.228,-0.2249,-0.2352,-0.2333,-0.2284,-0.2336,-0.2269,-0.2258,-0.2242,-0.2198,-0.2205,-0.2156,-0.2094,-0.2008,-0.1953,-0.1821,-0.1808,-0.1764,-0.1771,-0.1791,-0.1795,-0.1776,-0.1809,-0.1761,-0.1762,-0.1763,-0.1764,0,-0.2104,-0.218,-0.2159,-0.2217,-0.2221,-0.2182,-0.2193,-0.2165,-0.2177,-0.213,-0.212,-0.2104,-0.2007,-0.1934,-0.1798,-0.1755,-0.1614,-0.1593,-0.163,-0.1641,-0.159,-0.1623,-0.142,-0.137,-0.1461,-0.1459,-0.1458,0,-0.2007,-0.1989,-0.2056,-0.2066,-0.2089,-0.2069,-0.2058,-0.2091,-0.2096,-0.2093,-0.2075,-0.1997,-0.1931,-0.1737,-0.164,-0.1499,-0.1513,-0.1422,-0.1472,-0.1519,-0.1562,-0.1585,-0.156,-0.1424,-0.1422,-0.1421,-0.1419,0,-0.1812,-0.1858,-0.187,-0.1916,-0.1931,-0.1931,-0.1949,-0.1937,-0.1996,-0.1977,-0.1967,-0.1917,-0.1784,-0.165,-0.149,-0.1407,-0.142,-0.1387,-0.1408,-0.1456,-0.1493,-0.1476,-0.1613,-0.1407,-0.1408,-0.1409,-0.141,-0.141,-0.1671,-0.1648,-0.1722,-0.1742,-0.1794,-0.1826,-0.1775,-0.1841,-0.1819,-0.1807,-0.1837,-0.1756,-0.1701,-0.1479,-0.1384,-0.1288,-0.1291,-0.128,-0.1299,-0.1304,-0.1282,-0.1388,-0.1216,-0.1216,-0.1216,-0.1216,-0.1216,0,-0.1492,-0.1513,-0.1549,-0.1614,-0.1659,-0.1709,-0.1726,-0.1681,-0.1644,-0.1662,-0.1634,-0.159,-0.1487,-0.1418,-0.1329,-0.1253,-0.1215,-0.1219,-0.1265,-0.1228,-0.1293,-0.1322,-0.1197,-0.1197,-0.1197,-0.1197,-0.1197,-0.1197,-0.1403,-0.1376,-0.1416,-0.1465,-0.1525,-0.1495,-0.1471,-0.1433,-0.1416,-0.1354,-0.1335,-0.1324,-0.1333,-0.1465,-0.1382,-0.13,-0.1254,-0.1217,-0.1182,-0.1294,-0.1303,-0.1312,-0.1344,-0.1226,-0.1227,-0.1109,-0.1108,-0.1108]},{"header":{"parameterUnit":"m.s-1","parameterCategory":2,"la1":30.2991,"la2":30.254,"lo1":-89.0895,"lo2":-89.0444,"dy":0.0017,"dx":0.0017,"nx":28,"ny":28,"refTime":"2023-03-30T21:00:00:Z","depth":"0","parameterNumber":3,"parameterNumberName":"V-component_of_CURRENTS"},"data":[0,0,0,0,0,0,0,0,0,0,0,0,0,0,0,0,0,0,0,0,0,0,0,0,0,0,0,0,0,0,0,0,0,0,0,0,0,0,0,0,0,0,0,0,0,0,0,0,0,0,0,0,0,0,0,0,0,0,-0.0408,-0.0406,0,-0.022,-0.0217,-0.0214,-0.0071,-0.0071,-0.007,-0.007,0.02,0.0206,0.0213,0,0,0,0,0,0,0,0,0,0,0,0,0,-0.0498,-0.0497,-0.0408,-0.0406,-0.0405,-0.022,-0.0217,-0.0213,-0.0071,-0.0071,-0.007,-0.007,0.0197,0.0205,0.0213,0,0,0,0,0,0,0,0,0,0,0,0,0,-0.0391,-0.0497,-0.0408,-0.0319,-0.0309,-0.0221,-0.0217,-0.0212,-0.0071,-0.0071,-0.007,-0.0069,0.0195,0.0205,0.0215,0.0263,0,0,0.0245,0.025,0,0,0,0,0,0,0,0,-0.0397,-0.0386,-0.0333,-0.0325,-0.0314,-0.0176,-0.015,-0.0052,-0.0072,-0.0152,-0.007,-0.0069,0.0075,0.0095,0.0141,0.0276,0.0288,0.0246,0.0253,0.0257,0.026,0,0,0,0,0,0,0,-0.0405,-0.0393,-0.0324,-0.0332,-0.032,-0.0239,-0.0223,-0.013,-0.0036,-0.0145,-0.0136,-0.0131,0.0082,0.0131,0.0148,0.0292,0.0246,0.0255,0.0261,0.0265,0.0557,0.0558,0,0,0,0,0,0,-0.0455,-0.0401,-0.033,-0.0319,-0.0365,-0.0239,-0.0221,-0.0214,-0.0038,-0.0014,-0.0131,-0.0125,0.0113,0.0136,0.0158,0.0281,0.0257,0.0266,0.0272,0.0555,0.0557,0.0559,0,0,0,0,0,0,-0.0458,-0.0451,-0.0338,-0.0363,-0.0344,-0.024,-0.0232,-0.0211,-0.0169,-0.0031,-0.0003,-0.0114,0.0115,0.0144,0.0243,0.029,0.0271,0.028,0.0553,0.0556,0.0558,0.0492,0,0,0,0,0,0,-0.0461,-0.0453,-0.0458,-0.0367,-0.0345,-0.0294,-0.0233,-0.0208,-0.017,-0.016,-0.0007,0.002,0.0117,0.0228,0.0253,0.0304,0.0288,0.0551,0.0554,0.0557,0.0492,0.0492,0.0492,0,0,0,0,0,-0.0465,-0.0477,-0.046,-0.0451,-0.0358,-0.0295,-0.0275,-0.0191,-0.0171,-0.0151,-0.0047,0.0015,0.0267,0.0236,0.0266,0.0321,0.0549,0.0553,0.0557,0.0492,0.0492,0.0492,0,0,0,0,0,0,-0.0511,-0.0462,-0.0441,-0.0435,-0.0379,-0.0275,-0.0255,-0.0209,-0.0112,-0.0105,0.0026,0.006,0.0166,0.0245,0.0208,0.0416,0.0423,0.0433,0.0364,0.0365,0.0364,0.0372,0.0296,0,0,0,0,0,-0.0533,-0.0532,-0.0466,-0.0463,-0.0443,-0.0357,-0.0323,-0.0273,-0.0184,-0.0141,-0.003,0.0092,0.0208,0.028,0.0384,0.049,0.0556,0.0549,0.0549,0.0548,0.0576,0.072,0.0735,0.0571,0.0571,0.0571,0,0,-0.055,-0.0526,-0.0524,-0.0474,-0.0423,-0.0374,-0.0331,-0.0295,-0.0225,-0.0128,-0.0002,0.0081,0.0228,0.0354,0.0412,0.0428,0.0615,0.0553,0.0551,0.058,0.0726,0.0742,0.0756,0.0574,0.0573,0.0573,0,0,-0.0583,-0.0567,-0.0573,-0.053,-0.0481,-0.041,-0.0412,-0.0315,-0.0244,-0.0142,-0.0042,0.0067,0.0235,0.0372,0.0457,0.0518,0.0593,0.0544,0.0575,0.0713,0.0728,0.0742,0.0773,0.0791,0.0564,0.0564,0.0564,0,-0.0606,-0.0593,-0.0562,-0.0546,-0.0495,-0.0434,-0.0393,-0.0313,-0.0187,-0.0102,-0.0113,0.0163,0.0262,0.0462,0.0486,0.0523,0.0571,0.0557,0.0712,0.0728,0.0744,0.0774,0.0794,0.0561,0.0562,0.0562,0.0562,0,-0.0629,-0.0609,-0.0609,-0.0553,-0.0496,-0.0461,-0.0354,-0.027,-0.0195,-0.0098,0.0072,0.0195,0.0376,0.0414,0.0473,0.0648,0.063,0.0672,0.0704,0.0756,0.0783,0.0805,0.0557,0.0558,0.0559,0.056,0,0,-0.0688,-0.0633,-0.063,-0.0573,-0.0492,-0.0427,-0.0317,-0.0161,-0.0042,0.0046,0.0207,0.0371,0.0421,0.0521,0.0602,0.0717,0.0828,0.0736,0.0744,0.075,0.1059,0.0885,0.0893,0.0896,0.0902,0.0906,0.1005,0,-0.07,-0.0666,-0.0623,-0.0526,-0.0475,-0.036,-0.0234,-0.009,0.0035,0.0199,0.032,0.0477,0.047,0.0552,0.0661,0.0808,0.0897,0.0793,0.1025,0.1031,0.086,0.0918,0.0925,0.1003,0.1028,0.1032,0.1034,0,-0.0724,-0.0682,-0.0628,-0.0451,-0.0413,-0.034,-0.0094,0.0025,0.0244,0.034,0.0478,0.0564,0.0739,0.0713,0.0958,0.0887,0.0969,0.1048,0.1055,0.0947,0.0903,0.0975,0.1044,0.1177,0.1069,0.1066,0.1064,0,-0.0753,-0.0655,-0.0598,-0.0557,-0.0382,-0.0289,-0.0158,0.0062,0.0202,0.042,0.0521,0.0707,0.0814,0.0957,0.1038,0.1043,0.1254,0.1301,0.121,0.1195,0.1277,0.1259,0.1501,0.1484,0.1484,0.1483,0.1483,0,-0.0768,-0.0703,-0.0607,-0.0573,-0.0419,-0.0293,-0.0097,0.0062,0.027,0.0427,0.0574,0.0697,0.0889,0.0999,0.1078,0.1157,0.1288,0.1225,0.1237,0.1239,0.1218,0.1396,0.1448,0.1487,0.1486,0.1485,0.1485,0,-0.0809,-0.0767,-0.0672,-0.0512,-0.0447,-0.0334,-0.0086,0.0064,0.0251,0.0447,0.0509,0.073,0.0856,0.0957,0.1176,0.1201,0.1353,0.1293,0.1198,0.1195,0.123,0.1274,0.1479,0.154,0.1273,0.1269,0.1267,0,-0.0823,-0.0805,-0.0661,-0.058,-0.0512,-0.0333,-0.0197,0.0024,0.0167,0.0446,0.0529,0.0691,0.0768,0.0941,0.1038,0.1116,0.1239,0.1168,0.1201,0.1236,0.1302,0.1329,0.1372,0.1274,0.1272,0.127,0.1268,0,-0.0832,-0.0811,-0.0737,-0.0593,-0.0468,-0.0295,-0.0106,-0.0028,0.0218,0.0329,0.0471,0.0536,0.0713,0.0814,0.0889,0.0951,0.1243,0.1122,0.1284,0.1411,0.1353,0.1412,0.1119,0.125,0.1252,0.1253,0.1254,0.1255,-0.0831,-0.0796,-0.0714,-0.0562,-0.0417,-0.0272,-0.0153,-0.0036,0.0088,0.0242,0.0319,0.0414,0.0673,0.0787,0.0855,0.1069,0.1094,0.1191,0.1262,0.1301,0.1314,0.087,0.092,0.092,0.092,0.092,0.092,0,-0.0807,-0.0767,-0.065,-0.0479,-0.0335,-0.0253,-0.0074,0.0005,0.0044,0.0109,0.0158,0.039,0.0593,0.0857,0.1148,0.1261,0.136,0.1341,0.1513,0.157,0.1326,0.1277,0.1256,0.1256,0.1255,0.1255,0.1255,0.1255,-0.0783,-0.0714,-0.0666,-0.0443,-0.0317,-0.0138,-0.0067,-0.0,0.0071,0.0122,0.0222,0.0288,0.0687,0.1238,0.1554,0.1569,0.1766,0.1684,0.1788,0.1736,0.1733,0.1729,0.1702,0.1771,0.1771,0.2062,0.2065,0.2067]}],[{"header":{"parameterUnit":"m.s-1","parameterCategory":2,"la1":30.2991,"la2":30.254,"lo1":-89.0895,"lo2":-89.0444,"dy":0.0017,"dx":0.0017,"nx":28,"ny":28,"refTime":"2023-03-30T21:00:00:Z","depth":"2","parameterNumber":2,"parameterNumberName":"U-component_of_CURRENTS"},"data":[0,0,0,0,0,0,0,0,0,0,0,0,0,0,0,0,0,0,0,0,0,0,0,0,0,0,0,0,0,0,0,0,0,0,0,0,0,0,0,0,0,0,0,0,0,0,0,0,0,0,0,0,0,0,0,0,0,0,-0.2508,-0.2508,0,-0.255,-0.2551,-0.2551,-0.2567,-0.2567,-0.2567,-0.2568,-0.2613,-0.2614,-0.2615,0,0,0,0,0,0,0,0,0,0,0,0,0,-0.2359,-0.2362,-0.2508,-0.2508,-0.2509,-0.255,-0.2551,-0.2551,-0.2567,-0.2567,-0.2567,-0.2568,-0.2612,-0.2614,-0.2615,0,0,0,0,0,0,0,0,0,0,0,0,0,-0.2413,-0.2363,-0.2507,-0.2524,-0.2526,-0.255,-0.2551,-0.2551,-0.2567,-0.2567,-0.2568,-0.2568,-0.2612,-0.2614,-0.2615,-0.2621,0,0,-0.262,-0.2621,0,0,0,0,0,0,0,0,-0.241,-0.2418,-0.2521,-0.2523,-0.2526,-0.2556,-0.2515,-0.2576,-0.2567,-0.2549,-0.2568,-0.2568,-0.2596,-0.2599,-0.2602,-0.2624,-0.2625,-0.262,-0.2621,-0.2622,-0.2622,0,0,0,0,0,0,0,-0.2406,-0.2416,-0.2522,-0.2522,-0.2525,-0.2502,-0.251,-0.2526,-0.2568,-0.255,-0.2552,-0.2561,-0.2597,-0.2601,-0.2604,-0.2626,-0.262,-0.2622,-0.2623,-0.2623,-0.2637,-0.2636,0,0,0,0,0,0,-0.2411,-0.2413,-0.252,-0.2523,-0.247,-0.2505,-0.2514,-0.2544,-0.2568,-0.2573,-0.2561,-0.2562,-0.2598,-0.2602,-0.2605,-0.2609,-0.2622,-0.2624,-0.2624,-0.2638,-0.2637,-0.2636,0,0,0,0,0,0,-0.2408,-0.2421,-0.2519,-0.2469,-0.2481,-0.2509,-0.2541,-0.2545,-0.2563,-0.2577,-0.2581,-0.2577,-0.2598,-0.2603,-0.2627,-0.2611,-0.2624,-0.2626,-0.2638,-0.2637,-0.2636,-0.2619,0,0,0,0,0,0,-0.2404,-0.242,-0.244,-0.2471,-0.2484,-0.2549,-0.2541,-0.2545,-0.2569,-0.257,-0.2592,-0.2596,-0.2599,-0.2625,-0.2629,-0.2613,-0.2627,-0.2639,-0.2638,-0.2637,-0.2621,-0.2618,-0.2616,0,0,0,0,0,-0.2399,-0.2429,-0.2441,-0.2454,-0.2513,-0.255,-0.2555,-0.2571,-0.2569,-0.2586,-0.2593,-0.2596,-0.2619,-0.2627,-0.2631,-0.2616,-0.264,-0.2638,-0.2637,-0.2622,-0.2618,-0.2616,0,0,0,0,0,0,-0.2382,-0.2435,-0.2449,-0.2496,-0.2528,-0.2554,-0.2575,-0.2579,-0.2597,-0.2599,-0.2604,-0.2609,-0.2616,-0.2623,-0.2631,-0.2614,-0.2624,-0.2623,-0.261,-0.2607,-0.2605,-0.2539,-0.2628,0,0,0,0,0,-0.2388,-0.2423,-0.2466,-0.2506,-0.2527,-0.2551,-0.2567,-0.2578,-0.2599,-0.2607,-0.2623,-0.2624,-0.2611,-0.2618,-0.2621,-0.2628,-0.258,-0.2614,-0.2612,-0.261,-0.2558,-0.2474,-0.2458,-0.2632,-0.2632,-0.2632,0,0,-0.2401,-0.2427,-0.2454,-0.2504,-0.2533,-0.2544,-0.2562,-0.2597,-0.2588,-0.2609,-0.2618,-0.2625,-0.2611,-0.2607,-0.261,-0.2616,-0.2544,-0.2608,-0.2606,-0.2554,-0.2471,-0.2454,-0.2438,-0.2631,-0.2631,-0.2631,0,0,-0.2412,-0.2466,-0.2484,-0.2512,-0.255,-0.2557,-0.257,-0.2607,-0.2611,-0.2634,-0.2615,-0.2599,-0.2639,-0.2584,-0.2567,-0.2549,-0.2533,-0.2577,-0.2513,-0.2435,-0.2418,-0.2403,-0.2353,-0.2334,-0.2577,-0.2577,-0.2576,0,-0.2414,-0.2442,-0.2496,-0.2509,-0.2518,-0.256,-0.256,-0.2573,-0.2607,-0.2586,-0.2642,-0.2598,-0.2603,-0.2511,-0.2505,-0.2536,-0.2509,-0.2531,-0.2428,-0.2412,-0.2397,-0.2348,-0.2327,-0.2576,-0.2576,-0.2576,-0.2576,0,-0.2421,-0.2447,-0.2467,-0.2486,-0.2506,-0.2525,-0.2545,-0.2558,-0.258,-0.2571,-0.2534,-0.2537,-0.2494,-0.2503,-0.2504,-0.2389,-0.2414,-0.2435,-0.2431,-0.2377,-0.2332,-0.231,-0.2574,-0.2574,-0.2575,-0.2575,0,0,-0.2384,-0.2454,-0.2453,-0.2451,-0.249,-0.2498,-0.2494,-0.2471,-0.2432,-0.2475,-0.2408,-0.2384,-0.238,-0.2353,-0.2347,-0.228,-0.2175,-0.2317,-0.2314,-0.2257,-0.2025,-0.2005,-0.198,-0.2196,-0.2191,-0.2187,-0.2047,0,-0.2353,-0.2362,-0.2402,-0.2393,-0.2392,-0.243,-0.2409,-0.2396,-0.2401,-0.236,-0.2328,-0.2284,-0.2325,-0.2306,-0.224,-0.2189,-0.2112,-0.2211,-0.209,-0.2085,-0.2065,-0.195,-0.1875,-0.1739,-0.2026,-0.2022,-0.2019,0,-0.23,-0.2313,-0.231,-0.2316,-0.232,-0.2319,-0.2274,-0.227,-0.2222,-0.2228,-0.2179,-0.217,-0.2063,-0.2126,-0.1978,-0.2053,-0.2014,-0.1985,-0.198,-0.1933,-0.2021,-0.1832,-0.1688,-0.1982,-0.1985,-0.1988,-0.1991,0,-0.2183,-0.2223,-0.2211,-0.2224,-0.2254,-0.2242,-0.2245,-0.2215,-0.2179,-0.2132,-0.2095,-0.2012,-0.1967,-0.1894,-0.1865,-0.1912,-0.1717,-0.1778,-0.171,-0.1712,-0.1598,-0.1596,-0.1626,-0.1627,-0.1627,-0.1627,-0.1628,0,-0.2091,-0.207,-0.2166,-0.2154,-0.2107,-0.2172,-0.2102,-0.2102,-0.2072,-0.2011,-0.2012,-0.194,-0.1907,-0.1821,-0.1796,-0.1681,-0.1661,-0.1635,-0.1641,-0.1598,-0.1597,-0.1772,-0.1791,-0.1622,-0.1623,-0.1624,-0.1625,0,-0.1938,-0.2011,-0.1993,-0.2047,-0.205,-0.2022,-0.2019,-0.197,-0.1978,-0.1899,-0.188,-0.1844,-0.1758,-0.1713,-0.1602,-0.1582,-0.1486,-0.1453,-0.1423,-0.1425,-0.1552,-0.1572,-0.1326,-0.1324,-0.1322,-0.132,-0.1318,0,-0.1854,-0.184,-0.1893,-0.1895,-0.192,-0.1903,-0.1872,-0.1897,-0.1858,-0.1841,-0.178,-0.1707,-0.1636,-0.1474,-0.1425,-0.1329,-0.1396,-0.1205,-0.1249,-0.1473,-0.1505,-0.1529,-0.1551,-0.1112,-0.1109,-0.1107,-0.1105,0,-0.1682,-0.1722,-0.1726,-0.1747,-0.174,-0.1711,-0.1694,-0.1657,-0.1701,-0.1648,-0.1607,-0.1563,-0.1449,-0.1326,-0.123,-0.1172,-0.1219,-0.115,-0.1324,-0.1221,-0.1265,-0.13,-0.1329,-0.1082,-0.1084,-0.1086,-0.1087,-0.1088,-0.1551,-0.1525,-0.1574,-0.1576,-0.1586,-0.1566,-0.1493,-0.1525,-0.1475,-0.1446,-0.1464,-0.1371,-0.1317,-0.1122,-0.1042,-0.0979,-0.1058,-0.1016,-0.1026,-0.1038,-0.1058,-0.1097,-0.0888,-0.0889,-0.089,-0.0891,-0.0892,0,-0.138,-0.139,-0.14,-0.1423,-0.1387,-0.143,-0.1391,-0.1305,-0.1261,-0.1293,-0.1266,-0.1071,-0.1011,-0.0951,-0.0833,-0.0795,-0.0801,-0.0753,-0.0782,-0.0804,-0.0824,-0.0836,-0.0605,-0.0604,-0.0603,-0.0602,0,0,-0.1292,-0.1247,-0.127,-0.1217,-0.1227,-0.1104,-0.1051,-0.0985,-0.0958,-0.0926,-0.0907,-0.0999,-0.0941,-0.0792,-0.074,-0.0661,-0.0723,-0.0619,-0.0851,-0.0908,-0.0927,-0.0975,-0.1018,0,0,0,0,0]},{"header":{"parameterUnit":"m.s-1","parameterCategory":2,"la1":30.2991,"la2":30.254,"lo1":-89.0895,"lo2":-89.0444,"dy":0.0017,"dx":0.0017,"nx":28,"ny":28,"refTime":"2023-03-30T21:00:00:Z","depth":"2","parameterNumber":3,"parameterNumberName":"V-component_of_CURRENTS"},"data":[0,0,0,0,0,0,0,0,0,0,0,0,0,0,0,0,0,0,0,0,0,0,0,0,0,0,0,0,0,0,0,0,0,0,0,0,0,0,0,0,0,0,0,0,0,0,0,0,0,0,0,0,0,0,0,0,0,0,-0.055,-0.0549,0,-0.0408,-0.0406,-0.0405,-0.0314,-0.0314,-0.0314,-0.0313,-0.0034,-0.0027,-0.002,0,0,0,0,0,0,0,0,0,0,0,0,0,-0.0593,-0.0594,-0.055,-0.0548,-0.0547,-0.0409,-0.0406,-0.0404,-0.0314,-0.0314,-0.0314,-0.0313,-0.0037,-0.0028,-0.002,0,0,0,0,0,0,0,0,0,0,0,0,0,-0.0524,-0.0594,-0.055,-0.0487,-0.048,-0.0409,-0.0406,-0.0404,-0.0315,-0.0314,-0.0314,-0.0313,-0.0039,-0.0029,-0.0018,0.0037,0,0,0.0014,0.0019,0,0,0,0,0,0,0,0,-0.0528,-0.0522,-0.0498,-0.0491,-0.0483,-0.038,-0.0319,-0.025,-0.0315,-0.0375,-0.0313,-0.0313,-0.0139,-0.012,-0.0093,0.0051,0.0063,0.0015,0.0022,0.0026,0.0029,0,0,0,0,0,0,0,-0.0533,-0.0527,-0.0492,-0.0496,-0.0487,-0.0414,-0.0405,-0.0305,-0.0257,-0.037,-0.0363,-0.0351,-0.0134,-0.0104,-0.0086,0.0067,0.0015,0.0024,0.0031,0.0035,0.039,0.0393,0,0,0,0,0,0,-0.0564,-0.0532,-0.0496,-0.0488,-0.0507,-0.0415,-0.0404,-0.0412,-0.0261,-0.0239,-0.0352,-0.0348,-0.0123,-0.0098,-0.0075,0.007,0.0026,0.0036,0.0042,0.0387,0.0391,0.0394,0,0,0,0,0,0,-0.0565,-0.0563,-0.0502,-0.0507,-0.0494,-0.0416,-0.0425,-0.041,-0.0377,-0.025,-0.0225,-0.0334,-0.0121,-0.009,0.0024,0.0079,0.0041,0.0051,0.0383,0.0388,0.0392,0.0317,0,0,0,0,0,0,-0.0568,-0.0565,-0.0576,-0.051,-0.0495,-0.046,-0.0425,-0.0407,-0.0371,-0.0364,-0.0226,-0.02,-0.0118,0.0007,0.0034,0.0093,0.0059,0.038,0.0385,0.0391,0.0316,0.0318,0.0321,0,0,0,0,0,-0.057,-0.0589,-0.0578,-0.0573,-0.0517,-0.046,-0.0445,-0.0385,-0.0371,-0.0354,-0.0258,-0.0204,0.0064,0.0017,0.0048,0.0112,0.0377,0.0384,0.039,0.0314,0.0318,0.0321,0,0,0,0,0,0,-0.0608,-0.058,-0.0566,-0.0576,-0.0523,-0.0445,-0.0428,-0.0391,-0.0306,-0.03,-0.0183,-0.0149,-0.003,0.0056,0.0001,0.0237,0.0237,0.0251,0.0169,0.0174,0.0176,0.0176,0.0068,0,0,0,0,0,-0.0628,-0.0638,-0.0585,-0.059,-0.0572,-0.0503,-0.0474,-0.0437,-0.0357,-0.0321,-0.0217,-0.0093,0.0024,0.0104,0.0207,0.0332,0.0373,0.0403,0.0405,0.0407,0.0433,0.0541,0.0553,0.0416,0.0416,0.0416,0,0,-0.0642,-0.0629,-0.0633,-0.0598,-0.0558,-0.0514,-0.0484,-0.0449,-0.0384,-0.03,-0.0181,-0.0098,0.0052,0.0184,0.0251,0.0266,0.0454,0.0415,0.0414,0.0441,0.0549,0.0562,0.0573,0.0421,0.042,0.0419,0,0,-0.0668,-0.0669,-0.0677,-0.0639,-0.0591,-0.0536,-0.0531,-0.045,-0.0387,-0.028,-0.0196,-0.0082,0.0098,0.0224,0.031,0.0397,0.0442,0.0438,0.0478,0.058,0.0591,0.0602,0.0591,0.0602,0.0464,0.0464,0.0464,0,-0.0684,-0.0686,-0.0665,-0.0649,-0.0606,-0.0549,-0.0513,-0.0439,-0.0322,-0.0243,-0.0247,0.0026,0.0129,0.0325,0.0359,0.0404,0.0427,0.0439,0.0578,0.059,0.0602,0.059,0.0602,0.0461,0.0462,0.0462,0.0462,0,-0.0701,-0.0693,-0.0691,-0.0648,-0.0598,-0.0566,-0.0466,-0.0385,-0.0312,-0.0225,-0.0053,0.0071,0.0251,0.0298,0.036,0.0524,0.0492,0.0535,0.055,0.061,0.0594,0.0608,0.0457,0.0458,0.0459,0.046,0,0,-0.0753,-0.0712,-0.0709,-0.0666,-0.0594,-0.0539,-0.0431,-0.029,-0.019,-0.0082,0.0043,0.0245,0.0298,0.0401,0.0487,0.0584,0.065,0.0599,0.0605,0.0551,0.0793,0.0695,0.07,0.071,0.0714,0.0718,0.0715,0,-0.0761,-0.0737,-0.0702,-0.0622,-0.0584,-0.048,-0.0366,-0.0233,-0.012,0.001,0.0149,0.028,0.0346,0.0409,0.0526,0.0606,0.07,0.0642,0.0779,0.0781,0.066,0.072,0.0653,0.0642,0.0729,0.0731,0.0733,0,-0.0779,-0.075,-0.0709,-0.0571,-0.0541,-0.0476,-0.0273,-0.0159,0.0028,0.0116,0.026,0.0322,0.0478,0.0502,0.0705,0.0657,0.0746,0.0798,0.08,0.076,0.0715,0.062,0.0665,0.0757,0.0755,0.0753,0.0752,0,-0.0807,-0.073,-0.069,-0.0657,-0.0516,-0.0435,-0.0318,-0.0127,-0.0012,0.0165,0.0202,0.0397,0.045,0.061,0.0694,0.0717,0.0846,0.0897,0.0895,0.0883,0.0885,0.0868,0.1084,0.1084,0.1084,0.1084,0.1084,0,-0.082,-0.0772,-0.0699,-0.0674,-0.0552,-0.0441,-0.0282,-0.0133,0.0022,0.0116,0.0247,0.0285,0.0485,0.055,0.0677,0.078,0.0849,0.091,0.0909,0.0847,0.0827,0.1,0.0991,0.1084,0.1084,0.1084,0.1084,0,-0.0855,-0.0825,-0.0754,-0.0629,-0.0576,-0.0477,-0.0281,-0.0181,-0.0028,0.0069,0.0096,0.0206,0.0304,0.0448,0.0645,0.0725,0.0849,0.0886,0.0725,0.0709,0.0816,0.0804,0.0904,0.0901,0.0899,0.0897,0.0895,0,-0.0868,-0.0856,-0.0747,-0.0689,-0.0633,-0.0482,-0.0395,-0.021,-0.016,-0.0007,-0.0031,0.0081,0.0133,0.0318,0.0503,0.0687,0.0784,0.0707,0.0796,0.0825,0.0814,0.0805,0.0796,0.073,0.0727,0.0725,0.0723,0,-0.0877,-0.0861,-0.0807,-0.0705,-0.0628,-0.0527,-0.0427,-0.0402,-0.024,-0.0204,-0.0193,-0.0143,0.0038,0.0185,0.041,0.0519,0.067,0.0664,0.0792,0.0774,0.0659,0.0648,0.0646,0.0702,0.0704,0.0706,0.0707,0.0707,-0.0876,-0.085,-0.0795,-0.0683,-0.0614,-0.0579,-0.054,-0.049,-0.0439,-0.0374,-0.0343,-0.025,-0.0091,0.0213,0.0358,0.0518,0.0573,0.0624,0.0633,0.0644,0.0614,0.0502,0.0501,0.0502,0.0503,0.0504,0.0504,0,-0.0858,-0.0828,-0.0749,-0.0655,-0.0636,-0.0585,-0.0572,-0.0596,-0.0603,-0.0486,-0.0429,-0.0285,-0.009,0.0123,0.0344,0.046,0.0504,0.0483,0.0533,0.0549,0.0564,0.0534,0.0398,0.0399,0.04,0.04,0,0,-0.0839,-0.0794,-0.076,-0.0703,-0.0664,-0.0702,-0.0732,-0.0755,-0.0712,-0.0618,-0.0494,-0.0322,-0.0113,0.0034,0.0193,0.0308,0.0401,0.031,0.0369,0.042,0.0436,0.0604,0.0568,0,0,0,0,0]}],[{"header":{"parameterUnit":"m.s-1","parameterCategory":2,"la1":30.2991,"la2":30.254,"lo1":-89.0895,"lo2":-89.0444,"dy":0.0017,"dx":0.0017,"nx":28,"ny":28,"refTime":"2023-03-30T21:00:00:Z","depth":"4","parameterNumber":2,"parameterNumberName":"U-component_of_CURRENTS"},"data":[0,0,0,0,0,0,0,0,0,0,0,0,0,0,0,0,0,0,0,0,0,0,0,0,0,0,0,0,0,0,0,0,0,0,0,0,0,0,0,0,0,0,0,0,0,0,0,0,0,0,0,0,0,0,0,0,0,0,-0.1237,-0.1238,0,-0.1251,-0.125,-0.125,-0.1294,-0.1295,-0.1297,-0.1298,-0.1365,-0.1365,-0.1366,0,0,0,0,0,0,0,0,0,0,0,0,0,-0.133,-0.1327,-0.1237,-0.1238,-0.1239,-0.1251,-0.125,-0.125,-0.1294,-0.1295,-0.1297,-0.1299,-0.1364,-0.1365,-0.1366,0,0,0,0,0,0,0,0,0,0,0,0,0,-0.1306,-0.1326,-0.1237,-0.1265,-0.1268,-0.1251,-0.125,-0.125,-0.1293,-0.1295,-0.1298,-0.1299,-0.1364,-0.1365,-0.1366,-0.1327,0,0,-0.1368,-0.1368,0,0,0,0,0,0,0,0,-0.1307,-0.1302,-0.1261,-0.1263,-0.1267,-0.1277,-0.1308,-0.128,-0.1293,-0.1279,-0.1298,-0.1301,-0.1342,-0.1344,-0.1335,-0.133,-0.1333,-0.1368,-0.1368,-0.1368,-0.1369,0,0,0,0,0,0,0,-0.1309,-0.1302,-0.1238,-0.1261,-0.1265,-0.1305,-0.1303,-0.1302,-0.1295,-0.128,-0.1284,-0.1293,-0.1344,-0.1334,-0.1337,-0.1334,-0.1368,-0.1368,-0.1369,-0.1369,-0.1333,-0.1332,0,0,0,0,0,0,-0.131,-0.1303,-0.1237,-0.1239,-0.1298,-0.1302,-0.1299,-0.1268,-0.1294,-0.1301,-0.1291,-0.1295,-0.1331,-0.1336,-0.1339,-0.1379,-0.1368,-0.1369,-0.1369,-0.1334,-0.1333,-0.1331,0,0,0,0,0,0,-0.1311,-0.1302,-0.1237,-0.1278,-0.1273,-0.1298,-0.1262,-0.1267,-0.1288,-0.1303,-0.1311,-0.1312,-0.1333,-0.1338,-0.1341,-0.1379,-0.1369,-0.137,-0.1336,-0.1334,-0.1332,-0.1405,0,0,0,0,0,0,-0.1312,-0.1301,-0.1292,-0.1276,-0.1271,-0.1238,-0.1261,-0.1266,-0.129,-0.1296,-0.1322,-0.1329,-0.1335,-0.134,-0.1342,-0.138,-0.137,-0.1338,-0.1335,-0.1333,-0.1405,-0.1406,-0.1407,0,0,0,0,0,-0.1315,-0.1298,-0.1289,-0.1284,-0.1251,-0.1238,-0.1238,-0.1262,-0.1289,-0.129,-0.13,-0.133,-0.1326,-0.1339,-0.1342,-0.1382,-0.1339,-0.1336,-0.1333,-0.1404,-0.1406,-0.1407,0,0,0,0,0,0,-0.1337,-0.1301,-0.1292,-0.1264,-0.1255,-0.1248,-0.1262,-0.1272,-0.1278,-0.1302,-0.1311,-0.1316,-0.134,-0.1324,-0.1339,-0.1353,-0.1338,-0.1335,-0.1391,-0.1393,-0.1394,-0.1387,-0.1371,0,0,0,0,0,-0.1332,-0.1306,-0.1282,-0.1261,-0.1261,-0.1262,-0.1268,-0.1282,-0.1284,-0.1292,-0.1308,-0.1315,-0.1319,-0.1329,-0.1328,-0.1331,-0.1304,-0.1351,-0.1353,-0.1355,-0.1344,-0.1297,-0.1294,-0.1321,-0.1321,-0.1321,0,0,-0.1331,-0.1314,-0.1297,-0.1265,-0.1264,-0.125,-0.127,-0.1287,-0.1277,-0.1297,-0.1304,-0.1329,-0.1318,-0.133,-0.1338,-0.1331,-0.1338,-0.1351,-0.1353,-0.1341,-0.1293,-0.1291,-0.1289,-0.1319,-0.132,-0.132,0,0,-0.1326,-0.1304,-0.1285,-0.1273,-0.1279,-0.1272,-0.128,-0.1284,-0.1293,-0.129,-0.1312,-0.1345,-0.1339,-0.1349,-0.1348,-0.1343,-0.1349,-0.1356,-0.1365,-0.1321,-0.1319,-0.1317,-0.1317,-0.1314,-0.1355,-0.1355,-0.1355,0,-0.1333,-0.1288,-0.1283,-0.1267,-0.1259,-0.128,-0.1263,-0.1261,-0.1269,-0.1266,-0.13,-0.1309,-0.1342,-0.1336,-0.1362,-0.1355,-0.1336,-0.1376,-0.1327,-0.1324,-0.132,-0.132,-0.1316,-0.1358,-0.1358,-0.1357,-0.1357,0,-0.1302,-0.1278,-0.1274,-0.1241,-0.1236,-0.123,-0.1224,-0.1232,-0.1257,-0.1256,-0.1273,-0.1307,-0.1307,-0.1345,-0.137,-0.1371,-0.137,-0.1343,-0.1336,-0.1323,-0.1323,-0.1318,-0.1363,-0.1361,-0.136,-0.136,0,0,-0.1281,-0.1251,-0.1251,-0.1225,-0.1222,-0.1204,-0.12,-0.1178,-0.117,-0.1205,-0.1186,-0.1253,-0.1294,-0.1292,-0.1338,-0.134,-0.1359,-0.1352,-0.1348,-0.1376,-0.1291,-0.121,-0.1197,-0.1325,-0.1324,-0.1323,-0.1316,0,-0.1255,-0.1211,-0.1209,-0.1167,-0.1139,-0.1148,-0.1128,-0.1124,-0.1139,-0.113,-0.1173,-0.1178,-0.1259,-0.1289,-0.1305,-0.1341,-0.1341,-0.1365,-0.1276,-0.1274,-0.1223,-0.1185,-0.1318,-0.1312,-0.131,-0.1309,-0.1309,0,-0.1226,-0.1193,-0.1148,-0.1105,-0.1095,-0.108,-0.1054,-0.1041,-0.104,-0.1056,-0.1079,-0.1102,-0.1147,-0.1196,-0.1232,-0.1245,-0.1274,-0.1299,-0.1297,-0.1185,-0.1181,-0.1312,-0.1299,-0.1299,-0.13,-0.1301,-0.1301,0,-0.1198,-0.1153,-0.1109,-0.1092,-0.1051,-0.1039,-0.1027,-0.1026,-0.1002,-0.1009,-0.1008,-0.1033,-0.1062,-0.1079,-0.1169,-0.1192,-0.1187,-0.1202,-0.1147,-0.1144,-0.1194,-0.1196,-0.1181,-0.1181,-0.1181,-0.1181,-0.1181,0,-0.1159,-0.1128,-0.1092,-0.1059,-0.1002,-0.1005,-0.0965,-0.0962,-0.0954,-0.0935,-0.0974,-0.0972,-0.1033,-0.1048,-0.1114,-0.1115,-0.1128,-0.1134,-0.1116,-0.1229,-0.1234,-0.1194,-0.1195,-0.1181,-0.1181,-0.1181,-0.1181,0,-0.1135,-0.1117,-0.1048,-0.0996,-0.0986,-0.0944,-0.091,-0.088,-0.09,-0.088,-0.0876,-0.091,-0.094,-0.0982,-0.1023,-0.1036,-0.1044,-0.1035,-0.1174,-0.1167,-0.1055,-0.1061,-0.0962,-0.0958,-0.0956,-0.0953,-0.0951,0,-0.1098,-0.1069,-0.0996,-0.0949,-0.0926,-0.088,-0.0852,-0.085,-0.0833,-0.0853,-0.0838,-0.085,-0.0884,-0.087,-0.093,-0.0961,-0.0973,-0.0965,-0.1,-0.103,-0.1023,-0.1033,-0.1042,-0.0947,-0.0946,-0.0945,-0.0944,0,-0.1017,-0.1012,-0.0951,-0.0867,-0.0819,-0.0767,-0.0745,-0.0723,-0.0746,-0.0765,-0.0773,-0.0777,-0.0797,-0.083,-0.0835,-0.0875,-0.0958,-0.0936,-0.0943,-0.0977,-0.101,-0.1009,-0.1021,-0.0934,-0.0936,-0.0937,-0.0937,0,-0.0942,-0.0889,-0.0828,-0.0732,-0.0694,-0.0661,-0.0665,-0.0654,-0.0637,-0.0691,-0.07,-0.0749,-0.0794,-0.0785,-0.0806,-0.0805,-0.082,-0.0822,-0.0836,-0.0847,-0.0811,-0.0838,-0.0673,0,0,0,0,0,-0.0845,-0.0775,-0.0692,-0.0587,-0.057,-0.0555,-0.0582,-0.0608,-0.0657,-0.0643,-0.0667,-0.069,-0.0706,-0.0727,-0.0707,-0.0756,-0.0818,-0.073,-0.0827,-0.088,-0.0891,-0.086,0,0,0,0,0,0,-0.0765,-0.0707,-0.0646,-0.0497,-0.0431,-0.0411,-0.0439,-0.0494,-0.0498,-0.0567,-0.0579,-0.0628,-0.065,-0.0688,-0.0678,-0.0685,-0.0733,-0.0758,-0.0757,-0.0873,-0.0883,-0.0893,-0.0864,0,0,0,0,0]},{"header":{"parameterUnit":"m.s-1","parameterCategory":2,"la1":30.2991,"la2":30.254,"lo1":-89.0895,"lo2":-89.0444,"dy":0.0017,"dx":0.0017,"nx":28,"ny":28,"refTime":"2023-03-30T21:00:00:Z","depth":"4","parameterNumber":3,"parameterNumberName":"V-component_of_CURRENTS"},"data":[0,0,0,0,0,0,0,0,0,0,0,0,0,0,0,0,0,0,0,0,0,0,0,0,0,0,0,0,0,0,0,0,0,0,0,0,0,0,0,0,0,0,0,0,0,0,0,0,0,0,0,0,0,0,0,0,0,0,-0.0611,-0.0611,0,-0.0607,-0.0608,-0.0608,-0.062,-0.062,-0.062,-0.062,-0.0664,-0.0665,-0.0666,0,0,0,0,0,0,0,0,0,0,0,0,0,-0.0548,-0.055,-0.0611,-0.0611,-0.061,-0.0607,-0.0608,-0.0608,-0.062,-0.062,-0.062,-0.062,-0.0664,-0.0665,-0.0666,0,0,0,0,0,0,0,0,0,0,0,0,0,-0.0566,-0.0551,-0.0611,-0.0614,-0.0614,-0.0607,-0.0608,-0.0608,-0.062,-0.062,-0.062,-0.062,-0.0663,-0.0665,-0.0666,-0.0674,0,0,-0.0671,-0.0672,0,0,0,0,0,0,0,0,-0.0565,-0.0569,-0.0614,-0.0614,-0.0614,-0.0612,-0.0601,-0.0631,-0.062,-0.0621,-0.062,-0.062,-0.0649,-0.0652,-0.0654,-0.0676,-0.0678,-0.0672,-0.0672,-0.0673,-0.0674,0,0,0,0,0,0,0,-0.0564,-0.0569,-0.0613,-0.0613,-0.0613,-0.0587,-0.0591,-0.0607,-0.0638,-0.0621,-0.0621,-0.0616,-0.0649,-0.0653,-0.0656,-0.0678,-0.0671,-0.0673,-0.0674,-0.0675,-0.0727,-0.0728,0,0,0,0,0,0,-0.0563,-0.0568,-0.0613,-0.0612,-0.0586,-0.0589,-0.0593,-0.0615,-0.0636,-0.0638,-0.0615,-0.0616,-0.065,-0.0654,-0.0657,-0.0693,-0.0673,-0.0675,-0.0676,-0.0727,-0.0727,-0.0728,0,0,0,0,0,0,-0.0562,-0.0568,-0.0613,-0.0586,-0.0589,-0.059,-0.0614,-0.0614,-0.0625,-0.0631,-0.0635,-0.0626,-0.065,-0.0655,-0.0673,-0.0694,-0.0675,-0.0677,-0.0726,-0.0727,-0.0728,-0.0748,0,0,0,0,0,0,-0.0561,-0.0569,-0.0588,-0.0587,-0.0591,-0.0613,-0.0613,-0.0614,-0.062,-0.0621,-0.0641,-0.0645,-0.0651,-0.0671,-0.0675,-0.0696,-0.0678,-0.0726,-0.0727,-0.0727,-0.0747,-0.075,-0.0752,0,0,0,0,0,-0.0559,-0.0579,-0.059,-0.0594,-0.0617,-0.0613,-0.0613,-0.0614,-0.062,-0.0626,-0.0637,-0.0645,-0.0679,-0.0672,-0.0677,-0.0699,-0.0725,-0.0726,-0.0727,-0.0746,-0.0749,-0.0752,0,0,0,0,0,0,-0.0564,-0.0581,-0.0593,-0.062,-0.0619,-0.0614,-0.0616,-0.062,-0.0633,-0.0642,-0.0649,-0.0653,-0.0676,-0.0682,-0.0675,-0.0715,-0.0704,-0.0706,-0.0717,-0.072,-0.0722,-0.0757,-0.068,0,0,0,0,0,-0.0574,-0.0597,-0.0601,-0.0624,-0.0623,-0.0624,-0.0624,-0.0629,-0.0635,-0.0641,-0.0653,-0.0669,-0.0683,-0.0697,-0.0707,-0.0732,-0.073,-0.0748,-0.0751,-0.0753,-0.0783,-0.0809,-0.0817,-0.0731,-0.0731,-0.0731,0,0,-0.0583,-0.0594,-0.0609,-0.0626,-0.0627,-0.0629,-0.0626,-0.0632,-0.0649,-0.0645,-0.0674,-0.0677,-0.0689,-0.0712,-0.0724,-0.0723,-0.0762,-0.0754,-0.0756,-0.0786,-0.0811,-0.0819,-0.0827,-0.0732,-0.0732,-0.0731,0,0,-0.0594,-0.0622,-0.0636,-0.0637,-0.0641,-0.064,-0.0643,-0.0647,-0.0666,-0.0685,-0.0689,-0.0711,-0.0724,-0.0747,-0.0757,-0.0783,-0.0769,-0.0774,-0.0823,-0.0847,-0.0854,-0.0862,-0.081,-0.0812,-0.0781,-0.0781,-0.0781,0,-0.0603,-0.0631,-0.0636,-0.0642,-0.0651,-0.0645,-0.0659,-0.067,-0.0684,-0.0718,-0.0698,-0.0742,-0.0749,-0.0797,-0.0804,-0.0793,-0.0774,-0.081,-0.0851,-0.0859,-0.0866,-0.0811,-0.0814,-0.0782,-0.0782,-0.0782,-0.0782,0,-0.0616,-0.064,-0.0644,-0.066,-0.0669,-0.0678,-0.0691,-0.0714,-0.073,-0.075,-0.0799,-0.08,-0.0837,-0.083,-0.0827,-0.0882,-0.0837,-0.0845,-0.0846,-0.0876,-0.0815,-0.0817,-0.0784,-0.0784,-0.0783,-0.0783,0,0,-0.0634,-0.0653,-0.0656,-0.0679,-0.0687,-0.0701,-0.0733,-0.0776,-0.0818,-0.083,-0.0889,-0.0909,-0.092,-0.0934,-0.0927,-0.0948,-0.0955,-0.0922,-0.0922,-0.0873,-0.0948,-0.0806,-0.0794,-0.0968,-0.097,-0.0972,-0.0863,0,-0.0646,-0.0671,-0.0679,-0.0714,-0.0731,-0.0752,-0.0787,-0.0832,-0.086,-0.0909,-0.0939,-0.0977,-0.0955,-0.097,-0.0992,-0.0972,-0.0972,-0.098,-0.0926,-0.0924,-0.0799,-0.0798,-0.0978,-0.0865,-0.0865,-0.0866,-0.0866,0,-0.0659,-0.0678,-0.0714,-0.077,-0.0783,-0.0805,-0.0882,-0.0915,-0.0981,-0.1005,-0.105,-0.1059,-0.1096,-0.1069,-0.1058,-0.1059,-0.1019,-0.0989,-0.0985,-0.0862,-0.079,-0.0845,-0.087,-0.087,-0.0869,-0.0869,-0.0869,0,-0.0679,-0.0713,-0.0752,-0.0765,-0.0812,-0.0858,-0.0894,-0.0958,-0.1002,-0.1073,-0.1091,-0.1135,-0.1134,-0.113,-0.1045,-0.1069,-0.0994,-0.102,-0.0846,-0.0831,-0.0984,-0.0978,-0.1028,-0.1028,-0.1028,-0.1029,-0.1029,0,-0.0695,-0.073,-0.0769,-0.0791,-0.0856,-0.0893,-0.0966,-0.1011,-0.107,-0.111,-0.1146,-0.1146,-0.1154,-0.11,-0.1056,-0.0916,-0.0996,-0.0854,-0.0812,-0.0982,-0.0979,-0.098,-0.0976,-0.1025,-0.1025,-0.1026,-0.1027,0,-0.0708,-0.073,-0.0779,-0.084,-0.0864,-0.0919,-0.0992,-0.1042,-0.1087,-0.1132,-0.1154,-0.1155,-0.1066,-0.1006,-0.0949,-0.0888,-0.0803,-0.0733,-0.0848,-0.0814,-0.0625,-0.0623,-0.057,-0.0565,-0.056,-0.0556,-0.0553,0,-0.0716,-0.0738,-0.0805,-0.0842,-0.0872,-0.0943,-0.0989,-0.105,-0.1087,-0.1111,-0.1125,-0.1058,-0.103,-0.081,-0.0769,-0.0631,-0.0618,-0.0571,-0.0685,-0.0623,-0.0587,-0.0593,-0.0597,-0.0545,-0.0544,-0.0543,-0.0542,0,-0.0726,-0.075,-0.0786,-0.0855,-0.0912,-0.0971,-0.1036,-0.1044,-0.1096,-0.1126,-0.1062,-0.098,-0.0843,-0.0738,-0.0588,-0.0515,-0.062,-0.0523,-0.0535,-0.0642,-0.0592,-0.0562,-0.0572,-0.0525,-0.0528,-0.0529,-0.053,0,-0.0729,-0.0753,-0.0803,-0.0862,-0.094,-0.0994,-0.1016,-0.1026,-0.105,-0.1055,-0.1012,-0.0905,-0.0857,-0.067,-0.0552,-0.0434,-0.0453,-0.0472,-0.0487,-0.0505,-0.0523,-0.0453,-0.0309,0,0,0,0,0,-0.0724,-0.0751,-0.0808,-0.0885,-0.0968,-0.1011,-0.1053,-0.1063,-0.1071,-0.101,-0.1011,-0.0877,-0.0685,-0.062,-0.0475,-0.0498,-0.0449,-0.0328,-0.0484,-0.0436,-0.0455,-0.0477,0,0,0,0,0,0,-0.0723,-0.0772,-0.0797,-0.0897,-0.0954,-0.1043,-0.106,-0.1061,-0.1016,-0.0999,-0.0884,-0.0852,-0.0659,-0.076,-0.0477,-0.0445,-0.0527,-0.0249,-0.0246,-0.0425,-0.0442,-0.0457,-0.0486,0,0,0,0,0]}]]